Regional Weather Roundup
Issued by NWS

Home | Current Version | Previous Version | Graphics & Text | Print | Product List | Glossary On
Versions: 1 2 3 4 5 6 7 8 9 10 11 12 13 14 15 16 17 18 19 20 21 22 23 24 25 26 27 28 29 30 31 32 33 34 35 36 37 38 39 40 41 42 43 44 45 46 47 48 49 50
000
ASUS43 KMPX 230201
RWRMN
WEATHER ROUNDUP FOR MINNESOTA
NATIONAL WEATHER SERVICE TWIN CITIES/CHANHASSEN MN
800 PM CST WED FEB 22 2017


NOTE: "FAIR" INDICATES FEW OR NO CLOUDS BELOW 12,000 FEET WITH NO
SIGNIFICANT WEATHER AND/OR OBSTRUCTIONS TO VISIBILITY. N/A MEANS
CURRENT SKY AND/OR WEATHER CONDITIONS ARE NOT AVAILABLE.

MNZ060>063-068>070-230300-
   Twin Cities Metro

CITY           SKY/WX    TMP DP  RH WIND       PRES   REMARKS
TWIN CITIES    MOCLDY    47  38  71 NW21G26   29.64R
ST PAUL        CLOUDY    48  43  82 NW17      29.63R
CRYSTAL        CLOUDY    45  36  70 NW18      29.65R
BLAINE         MOCLDY    46  39  76 NW15G24   29.65R
LAKEVILLE      MOCLDY    46  45  93 W12G20    29.63R
EDEN PRAIRIE   MOCLDY    46  39  76 NW16G25   29.64R
SOUTH ST PAUL  MOCLDY    49  42  79 NW7       29.62R
LAKE ELMO      CLOUDY    45  45 100 NW7       29.63R
$$
MNZ001>005-007-008-013>017-022>024-027-028-230300-
   Northwest Minnesota

CITY           SKY/WX    TMP DP  RH WIND       PRES   REMARKS
BEMIDJI        PTCLDY    28  24  83 N7        29.81R WCI  21
HALLOCK        PTCLDY    30  27  86 N13       29.90R WCI  20
ROSEAU         MOCLDY    28  21  74 NW7       29.86R WCI  21
WARROAD        PTCLDY    28  23  80 NW5       29.86R WCI  23
THIEF RVR FALL CLEAR     29  24  82 N10       29.88R WCI  20
CROOKSTON      CLOUDY    32  28  86 N16       29.90R WCI  21
FOSSTON        PTCLDY    28  27  93 N7        29.85S WCI  21
DETROIT LAKES  CLOUDY    32  30  93 N12G29    29.83R WCI  23
MOORHEAD       CLOUDY    32  28  86 N15G22    29.88R WCI  22
PARK RAPIDS    CLOUDY    32  26  78 N14       29.79R WCI  22
MAHNOMEN       CLOUDY    31  26  81 N18       29.84R WCI  19
$$
MNZ006-009>011-018-025>026-230300-
   North Central Minnesota

CITY           SKY/WX    TMP DP  RH WIND       PRES   REMARKS
BAUDETTE       CLOUDY    27  20  75 NW9       29.83R WCI  18
FLAG ISLAND    PTCLDY    28  21  74 NW24      29.85R WCI  14
INTL FALLS     MOCLDY    29  24  82 NW3       29.80R
WASKISH        PTCLDY    28  27  93 NW6       29.82S WCI  22
BIG FORK       CLOUDY    30  27  86 N6        29.78R WCI  24
LONGVILLE      LGT SNOW  30  30 100 N3        29.77R
GRAND RAPIDS   LGT SNOW  32  30  92 N15       29.77R FOG     WCI  22
CRANE LAKE     CLOUDY    30  27  86 N9        29.79R WCI  22
ORR            CLOUDY    30  27  86 NW3       29.74R
COOK           LGT SNOW  30  30 100 NW5       29.76R WCI  25
WALKER         CLOUDY    29  26  87 N10       29.80R WCI  20
$$
MNZ012-019>021-037-230300-
   Northeast Minnesota

CITY           SKY/WX    TMP DP  RH WIND       PRES   REMARKS
DULUTH         LGT SNOW  34  32  92 N10       29.68R VSB 1   WCI  26
ELY            LGT SNOW  32  32 100 N3        29.72R
HIBBING        LGT SNOW  31  31 100 N13       29.73R VSB 1   WCI  21
EVELETH        LGT SNOW  33  32  97 N6        29.73S WCI  27
DULUTH HARBOR  LGT RAIN  36  34  93 N16       29.70R
TWO HARBORS    MIX PCPN  36  30  80 CALM      29.67S
SILVER BAY     LGT SNOW  34  34 100 CALM      29.67S
GRAND MARAIS     N/A     38  34  85 NW3       29.69R
G MARAIS ARPRT LGT SNOW  32  27  80 N10G17    29.65S WCI  24
$$
MNZ029>031-032-039>041-046>048-054>057-064-230300-
   West Central Minnesota

CITY           SKY/WX    TMP DP  RH WIND       PRES   REMARKS
FERGUS FALLS   CLOUDY    32  30  93 N9G18     29.87R WCI  24
WHEATON        CLOUDY    32  28  86 NW16G24   29.87R WCI  21
MORRIS         CLOUDY    34  32  93 N16       29.80R WCI  23
ALEXANDRIA     CLOUDY    34  32  92 N10       29.78R WCI  26
ELBOW LAKE     CLOUDY    32  31  96 N15       29.82R WCI  22
WADENA         MIX PCPN  32  30  93 N16       29.77S WCI  21
GLENWOOD       CLOUDY    34  32  93 N14       29.78R WCI  24
APPLETON       CLOUDY    36  32  87 N15G22    29.81R
BENSON         CLOUDY    37  32  81 N12       29.81R
ORTONVILLE     CLOUDY    34  30  86 N17       29.83R WCI  23
MADISON        CLOUDY    37  36  93 N20G26    29.82R
WILLMAR        CLOUDY    39  36  87 N21       29.76S
$$
MNZ033>034-036-042>043-049>051-058-059-230300-
   Central Minnesota

CITY           SKY/WX    TMP DP  RH WIND       PRES   REMARKS
ST CLOUD       LGT RAIN  35  34  96 N13G24    29.71R WCI  26
SAUK CENTRE    CLOUDY    33  32  94 N15G21    29.76R WCI  23
PAYNESVILLE    CLOUDY    36  36 100 N9        29.76R
AITKIN         LGT SNOW  36  30  80 NW8       29.73R
PINE RIVER     LGT SNOW  32  32 100 N9        29.80R WCI  24
BRAINERD       LGT SNOW  32  32 100 N16       29.75R FOG     WCI  21
STAPLES        FLURRIES  30  30 100 N14       29.76S WCI  20
LONG PRAIRIE   CLOUDY    32  32 100 NW13G20   29.75R WCI  22
LITTLE FALLS   FLURRIES  32  32 100 N8G16     29.74R WCI  25
LITCHFIELD     CLOUDY    39  37  93 NW13G22   29.73R
BUFFALO        CLOUDY    40  35  82 NW9       29.70R
MAPLE LAKE     CLOUDY    40  37  86 NW14      29.72R
HUTCHINSON     CLOUDY    42  39  89 NW13      29.72R
$$
MNZ037-044-045-052-053-230300-
   East Central Minnesota

CITY           SKY/WX    TMP DP  RH WIND       PRES   REMARKS
PRINCETON      CLOUDY    39  36  87 NW13G20   29.70R
MORA           RAIN      36  32  87 N10G22    29.70R
CAMBRIDGE      CLOUDY    43  34  70 NW13G20   29.65S
RUSH CITY      CLOUDY    41  36  81 N10       29.66R
MOOSE LAKE     LGT SNOW  32  32 100 N7        29.68R WCI  26
HINCKLEY       CLOUDY    37  34  87 N13G20    29.67R
CLOQUET        LGT SNOW  34  32  93 N9        29.68S WCI  26
MCGREGOR       CLOUDY    32  32 100 N12       29.72R WCI  23
$$
MNZ071>073-080-081-089-090-097-098-230300-
   Southwest Minnesota

CITY           SKY/WX    TMP DP  RH WIND       PRES   REMARKS
MONTEVIDEO     CLOUDY    36  34  93 N16G22    29.80R
GRANITE FALLS  CLOUDY    37  35  91 NW17G24   29.79R
CANBY          CLOUDY    35  33  91 NW16G22   29.84R WCI  25
MARSHALL       CLOUDY    35  32  88 NW20G31   29.79R WCI  24
REDWOOD FALLS  CLOUDY    40  35  83 NW15G25   29.73R
OLIVIA         CLOUDY    39  36  87 NW13G18   29.74R
PIPESTONE      MOCLDY    41  34  75 N9        29.77R
WINDOM         CLOUDY    39  37  93 NW20G25   29.76R
WORTHINGTON    MOCLDY    39  37  92 N16       29.77R
JACKSON          N/A     39  36  87 NW20G26   29.75R
TRACY          CLOUDY    38  36  93 NW20      29.80R
SLAYTON        CLOUDY    37  35  92 NW20G25   29.78S
$$
MNZ065>067-074>077-082>085-091>093-230300-
   South Central Minnesota

CITY           SKY/WX    TMP DP  RH WIND       PRES   REMARKS
MANKATO          N/A     43  40  89 NW20G25   29.70R
NEW ULM        CLOUDY    39  37  93 NW15      29.73R
ST JAMES       CLOUDY    39  37  93 W22G30    29.74R
FAIRMONT       MOCLDY    42  39  89 NW21G26   29.72R
GLENCOE        CLOUDY    44  41  90 NW14      29.69R
FARIBAULT      MOCLDY    46  43  87 W10       29.66R
OWATONNA       CLEAR     46  41  81 W16G26    29.66R
WASECA         MOCLDY    43  39  87 W20       29.69R
ALBERT LEA     MOCLDY    48  45  87 NW14G22   29.66R
$$
MNZ078>079-086>088-094>096-230300-
   Southeast Minnesota

CITY           SKY/WX    TMP DP  RH WIND       PRES   REMARKS
ROCHESTER      PTCLDY    49  45  86 NW18      29.62R
RED WING       PTCLDY    52  43  71 W8        29.59S
STANTON        MOCLDY    48  43  83 W12       29.62R
WINONA         CLEAR     43  37  81 CALM      29.60R
AUSTIN         PTCLDY    48  45  87 NW9G16    29.65R
PRESTON        PTCLDY    49  44  82 W9        29.62R
$$
ABBREVIATIONS USED IN REMARKS
   TC - TEMPERATURES IN CELSIUS
  WCI - WIND CHILL INDEX
   HX - HEAT INDEX
  VSB - VISIBILITY
$$



USA.gov is the U.S. government's official web portal to all federal, state and local government web resources and services.